Blythe, CA

7:25 AM PDT on August 31, 2016 (GMT -0700)
Blythe

Weather History for KBLH - July, 2013

Change the Weather History Date:

Monday, July 29, 2013

  Actual Average Record
Temperature  
Mean Temperature 91 °F -  
Max Temperature 108 °F 106 °F 115 °F (1972)
Min Temperature 75 °F 80 °F 72 °F (1990)
Cooling Degree Days 26    
Growing Degree Days 41 (Base 50)    
Moisture  
Dew Point 53 °F    
Average Humidity 26    
Maximum Humidity 42    
Minimum Humidity 17    
Precipitation  
Precipitation 0.00 in - - ()
Sea Level Pressure  
Sea Level Pressure 29.78 in    
Wind  
Wind Speed 8 mph (SSE)    
Max Wind Speed 17 mph    
Max Gust Speed 22 mph    
Visibility 10 miles    
Events      
Averages and records for this station are not official NWS values.
T = Trace of Precipitation, MM = Missing Value Source: NWS Daily Summary

Daily Weather History Graph

Daily Weather History Graph

Search for Another Location

Airport or City:

Trip Planner

Search our weather history database for the weather conditions in past years. The results will help you decide how hot, cold, wet, or windy it might be!

Date:

Astronomy

Jul. 29, 2013 Rise Set
Actual Time 5:49 AM PDT 7:41 PM PDT
Civil Twilight 5:21 AM PDT 8:08 PM PDT
Nautical Twilight 4:48 AM PDT 8:41 PM PDT
Astronomical Twilight 4:13 AM PDT 9:16 PM PDT
Moon No Moon Rise 1:09 PM PDT (7/29)
Length of Visible Light 14h 46m
Length of Day
13h 51m
Waning Gibbous, 50% of the Moon is Illuminated
Jul 29
Waning Gibbous
Aug 6
New
Aug 14
First Quarter
Aug 20
Full
Aug 28
Last Quarter

Hourly Weather History & Observations

Time (PDT) Temp. Heat Index Dew Point Humidity Pressure Visibility Wind Dir Wind Speed Gust Speed Precip Events Conditions
12:52 AM 86.0 °F 84.0 °F 53.1 °F 32% 29.69 in 10.0 mi South 8.1 mph - N/A   Clear
1:52 AM 84.0 °F 82.5 °F 53.1 °F 34% 29.70 in 10.0 mi SSW 8.1 mph - N/A   Clear
2:52 AM 82.9 °F - 51.1 °F 33% 29.71 in 10.0 mi ESE 5.8 mph - N/A   Clear
3:52 AM 82.9 °F - 52.0 °F 34% 29.72 in 10.0 mi Calm Calm - N/A   Clear
4:52 AM 80.1 °F - 48.9 °F 34% 29.73 in 10.0 mi East 4.6 mph - N/A   Clear
5:52 AM 75.9 °F - 51.1 °F 42% 29.75 in 10.0 mi SE 3.5 mph - N/A   Clear
6:52 AM 80.1 °F - 51.1 °F 36% 29.78 in 10.0 mi Calm Calm - N/A   Clear
7:52 AM 84.9 °F - 51.1 °F 31% 29.80 in 10.0 mi Calm Calm - N/A   Clear
8:52 AM 91.0 °F - 43.0 °F 19% 29.81 in 10.0 mi South 9.2 mph - N/A   Clear
9:52 AM 95.0 °F - 46.0 °F 19% 29.83 in 10.0 mi South 16.1 mph - N/A   Clear
10:52 AM 98.1 °F - 46.9 °F 18% 29.83 in 10.0 mi SSE 11.5 mph - N/A   Clear
11:52 AM 102.0 °F - 50.0 °F 17% 29.83 in 10.0 mi SSE 10.4 mph - N/A   Clear
12:52 PM 104.0 °F - 51.1 °F 17% 29.82 in 10.0 mi SSE 15.0 mph 21.9 mph N/A   Clear
1:52 PM 105.1 °F - 52.0 °F 17% 29.81 in 10.0 mi South 13.8 mph 21.9 mph N/A   Clear
2:52 PM 106.0 °F 104.5 °F 54.0 °F 18% 29.79 in 10.0 mi South 10.4 mph 18.4 mph N/A   Clear
3:52 PM 107.1 °F 105.4 °F 54.0 °F 17% 29.78 in 10.0 mi SSE 11.5 mph - N/A   Clear
4:52 PM 107.1 °F 105.4 °F 53.1 °F 17% 29.77 in 10.0 mi SSE 11.5 mph - N/A   Clear
5:52 PM 106.0 °F 105.1 °F 55.9 °F 19% 29.75 in 10.0 mi South 9.2 mph - N/A   Clear
6:52 PM 104.0 °F 103.4 °F 57.0 °F 21% 29.75 in 10.0 mi South 12.7 mph - N/A   Clear
7:52 PM 99.0 °F 98.6 °F 59.0 °F 26% 29.76 in 10.0 mi South 11.5 mph - N/A   Clear
8:52 PM 98.1 °F 98.6 °F 61.0 °F 29% 29.79 in 10.0 mi South 17.3 mph - N/A   Clear
9:52 PM 93.9 °F 92.9 °F 57.9 °F 30% 29.83 in 10.0 mi South 15.0 mph - N/A   Clear
10:52 PM 91.0 °F 90.0 °F 57.9 °F 33% 29.84 in 10.0 mi South 12.7 mph - N/A   Clear
11:52 PM 90.0 °F 88.6 °F 57.0 °F 33% 29.86 in 10.0 mi SSW 9.2 mph - N/A   Clear